Regional Weather Roundup
Issued by NWS

Home | Current Version | Previous Version | Graphics & Text | Print | Product List | Glossary On
Versions: 1 2 3 4 5 6 7 8 9 10 11 12 13 14 15 16 17 18 19 20 21 22 23 24 25 26 27 28 29 30 31 32 33 34 35 36 37 38 39 40 41 42 43 44 45 46 47 48 49 50
000
ASUS43 KOAX 231810
RWRNE

WEATHER ROUNDUP FOR NEBRASKA
NATIONAL WEATHER SERVICE OMAHA NE
100 PM CDT SUN APR 23 2017

NOTES: SATELLITE DATA IS BEING USED TO AUGMENT CLOUD COVER ABOVE
       12000 FEET.
       "FAIR" INDICATES FEW OR NO CLOUDS BELOW 12,000 FEET WITH NO
       SIGNIFICANT WEATHER AND/OR OBSTRUCTIONS TO VISIBILITY.

  * THESE STATIONS DO NOT REPORT WEATHER SUCH AS RAIN...SNOW OR FOG.

NEZ001>004-019>022-054>056-231900-
NEBRASKA PANHANDLE

CITY           SKY/WX    TMP DP  RH WIND       PRES   REMARKS
SCOTTSBLUFF    SUNNY     70  34  26 S10       29.84F
6HR MIN TEMP:  38; 6HR MAX TEMP:  70;

ALLIANCE       SUNNY     65  36  34 S24G31    29.85F
6HR MIN TEMP:  39; 6HR MAX TEMP:  65; 6HR PCP: TRACE;

CHADRON        MOSUNNY   70  32  24 SW22G28   29.79F
6HR MIN TEMP:  46; 6HR MAX TEMP:  70;

KIMBALL        CLOUDY    61  40  46 S13G21    29.91F
SIDNEY         CLOUDY    61  40  45 S22       29.91F
6HR MIN TEMP:  36; 6HR MAX TEMP:  61;

$$

NEZ057>060-069>072-079>082-231900-
SOUTHWEST NEBRASKA

CITY           SKY/WX    TMP DP  RH WIND       PRES   REMARKS
NORTH PLATTE   SUNNY     65  29  25 S25G36    29.98F
6HR MIN TEMP:  30; 6HR MAX TEMP:  65;

IMPERIAL       CLOUDY    61  36  39 S23G31    29.97F
6HR MIN TEMP:  35; 6HR MAX TEMP:  61;

LEXINGTON      SUNNY     66  28  23 S24G31    30.01F
MCCOOK         CLOUDY    66  35  31 S22G31    30.01F
6HR MIN TEMP:  32; 6HR MAX TEMP:  66;

OGALLALA       MOSUNNY   65  33  29 S26G36    29.93F
$$

NEZ005>010-023>029-035>040-094-231900-
NORTH CENTRAL NEBRASKA

CITY           SKY/WX    TMP DP  RH WIND       PRES   REMARKS
VALENTINE      MOSUNNY   68  29  23 S25G35    29.87F
6HR MIN TEMP:  43; 6HR MAX TEMP:  68;

AINSWORTH      PTSUNNY   65  33  30 SW26G35   29.91F
BROKEN BOW     SUNNY     67  27  22 S26G37    29.98F
6HR MIN TEMP:  29; 6HR MAX TEMP:  67;

O`NEILL        SUNNY     66  26  22 S23G33    29.96F
ORD            CLOUDY    65  25  22 S25G32    29.99F
6HR MIN TEMP:  35; 6HR MAX TEMP:  65;

THEDFORD       MOSUNNY   65  29  26 S22G37    29.94F
$$

NEZ041-046>049-061>064-073>077-083>087-231900-
SOUTH CENTRAL NEBRASKA

CITY           SKY/WX    TMP DP  RH WIND       PRES   REMARKS
GRAND ISLAND   SUNNY     67  29  24 SW24G32   30.05F
6HR MIN TEMP:  38; 6HR MAX TEMP:  67;

AURORA         SUNNY     67  29  24 S22       30.06F
HASTINGS       SUNNY     65  27  23 S18G26    30.08F
6HR MIN TEMP:  39; 6HR MAX TEMP:  65;

HEBRON         SUNNY     65  28  24 SW13G18   30.12F
HOLDREGE       SUNNY     64  27  24 S21G31    30.05F
KEARNEY *      SUNNY     66  27  22 S25G33    30.04F
YORK           SUNNY     66  27  22 S18G29    30.08F
$$

NEZ011>018-030>034-042>045-231900-
NORTHEAST NEBRASKA

CITY           SKY/WX    TMP DP  RH WIND       PRES   REMARKS
NORFOLK        SUNNY     68  31  25 S22G30    30.00F
6HR MIN TEMP:  42; 6HR MAX TEMP:  68;

ALBION         SUNNY     67  31  26 SW22G31   30.01F
BLAIR          SUNNY     67  30  25 SW15G21   30.08F
FREMONT        SUNNY     67  31  25 S8G21     30.08F
TEKAMAH        SUNNY     69  33  26 SW18      30.07F
6HR MIN TEMP:  39; 6HR MAX TEMP:  69;

WAYNE          SUNNY     67  37  32 SW20G31   30.01F
$$

NEZ050>053-065>068-078-088>093-231900-
SOUTHEAST NEBRASKA

CITY           SKY/WX    TMP DP  RH WIND       PRES   REMARKS
LINCOLN        SUNNY     69  30  23 SW16      30.11F
6HR MIN TEMP:  35; 6HR MAX TEMP:  69;

OMAHA EPPLEY   MOSUNNY   69  26  20 SW12G21   30.09F
6HR MIN TEMP:  40; 6HR MAX TEMP:  69;

BEATRICE       SUNNY     66  32  28 S14       30.12F
FALLS CITY     SUNNY     66  34  30 S6        30.12F
6HR MIN TEMP:  36; 6HR MAX TEMP:  67;

NEBRASKA CITY  SUNNY     66  19  16 SW14      30.13F
PLATTSMOUTH    SUNNY     68  19  15 SW13      30.11F
$$

NEZ044-045-051>053-067-231900-
OMAHA AREA

CITY           SKY/WX    TMP DP  RH WIND       PRES   REMARKS
OMAHA EPPLEY   MOSUNNY   69  26  20 SW12G21   30.09F
6HR MIN TEMP:  40; 6HR MAX TEMP:  69;

BLAIR          SUNNY     67  30  25 SW15G21   30.08F
FREMONT        SUNNY     67  31  25 S8G21     30.08F
MILLARD        SUNNY     69  33  26 S10       30.10F
OFFUTT AFB     SUNNY     69  30  24 S9        30.10F
PLATTSMOUTH    SUNNY     68  19  15 SW13      30.11F
WAHOO          FAIR      68  29  22 S14       30.09F
$$




USA.gov is the U.S. government's official web portal to all federal, state and local government web resources and services.